WZZ115 LTFM-UKLI

Flight info

Callsign WZZ115
Flight time N/A
Altitude 36000
Route IBLAX P727 ARGES DCT APTAN DCT BUKOV
Aircraft A320/M-SDE3FGHIRWY/LB1

Departure

Time 2026-05-07 05:57
Airport İstanbul Airport (LTFM)

Arrival

Time N/A
Airport Ivano-Frankivsk International Airport (UKLI)
Time Latitude Longitude Altitude Speed Heading
2026-05-07 05:37 41.27505 28.74778 332 ft 0 kts 359°
2026-05-07 05:48 41.27504 28.74778 334 ft 2 kts 359°
2026-05-07 05:49 41.27479 28.74778 331 ft 4 kts
2026-05-07 05:49 41.27443 28.74772 333 ft 4 kts 16°
2026-05-07 05:49 41.27420 28.74758 332 ft 4 kts 50°
2026-05-07 05:49 41.27414 28.74742 329 ft 0 kts 89°
2026-05-07 05:52 41.27414 28.74746 329 ft 0 kts 89°
2026-05-07 05:52 41.27414 28.74771 330 ft 5 kts 89°
2026-05-07 05:52 41.27414 28.74811 332 ft 8 kts 89°
2026-05-07 05:52 41.27416 28.74906 334 ft 12 kts 89°
2026-05-07 05:53 41.27418 28.75093 330 ft 18 kts 89°
2026-05-07 05:53 41.27421 28.75267 334 ft 18 kts 88°
2026-05-07 05:53 41.27393 28.75364 334 ft 12 kts 161°
2026-05-07 05:53 41.27300 28.75367 331 ft 14 kts 179°
2026-05-07 05:54 41.27231 28.75368 334 ft 16 kts 179°
2026-05-07 05:54 41.27112 28.75371 331 ft 18 kts 179°
2026-05-07 05:54 41.26979 28.75374 334 ft 20 kts 179°
2026-05-07 05:54 41.26830 28.75378 331 ft 22 kts 179°
2026-05-07 05:55 41.26629 28.75382 330 ft 21 kts 178°
2026-05-07 05:55 41.26475 28.75387 331 ft 23 kts 179°
2026-05-07 05:55 41.26355 28.75399 331 ft 13 kts 145°
2026-05-07 05:55 41.26335 28.75474 333 ft 14 kts 92°
2026-05-07 05:56 41.26338 28.75608 334 ft 16 kts 89°
2026-05-07 05:56 41.26367 28.75665 334 ft 8 kts 355°
2026-05-07 05:56 41.26530 28.75661 333 ft 55 kts 359°
2026-05-07 05:56 41.27143 28.75650 332 ft 117 kts 359°
2026-05-07 05:57 41.28120 28.75630 411 ft 155 kts 359°
2026-05-07 05:57 41.29176 28.75617 1094 ft 150 kts 359°
2026-05-07 05:57 41.30208 28.75878 1605 ft 159 kts 27°
2026-05-07 05:57 41.31132 28.76811 1898 ft 178 kts 40°
2026-05-07 05:58 41.32132 28.77915 2214 ft 197 kts 34°
2026-05-07 05:58 41.33362 28.78946 2456 ft 222 kts 28°
2026-05-07 05:58 41.34781 28.80001 2816 ft 246 kts 27°
2026-05-07 05:58 41.36349 28.81137 3355 ft 264 kts 27°
2026-05-07 05:59 41.38015 28.82204 4195 ft 267 kts 13°
2026-05-07 05:59 41.39849 28.82391 5094 ft 265 kts 352°
2026-05-07 05:59 41.41684 28.82155 6062 ft 265 kts 352°
2026-05-07 05:59 41.43521 28.81922 6966 ft 267 kts 352°
2026-05-07 06:00 41.45346 28.81691 7782 ft 269 kts 353°
2026-05-07 06:00 41.47216 28.81458 8637 ft 271 kts 353°
2026-05-07 06:00 41.49103 28.81222 9482 ft 273 kts 353°
2026-05-07 06:00 41.51011 28.80984 10266 ft 278 kts 353°
2026-05-07 06:01 41.53006 28.80736 10526 ft 300 kts 354°
2026-05-07 06:01 41.55163 28.80468 10689 ft 322 kts 354°
2026-05-07 06:01 41.57430 28.80187 11178 ft 332 kts 354°
2026-05-07 06:01 41.59714 28.79645 11810 ft 336 kts 343°
2026-05-07 06:02 41.61869 28.78413 12463 ft 340 kts 330°
2026-05-07 06:02 41.63749 28.76547 13073 ft 345 kts 317°
2026-05-07 06:02 41.65435 28.74234 13722 ft 349 kts 315°
2026-05-07 06:02 41.67131 28.71885 14323 ft 353 kts 315°
2026-05-07 06:03 41.68843 28.69521 14910 ft 355 kts 316°
2026-05-07 06:03 41.70567 28.67147 15517 ft 357 kts 316°
2026-05-07 06:03 41.72298 28.64758 16115 ft 358 kts 315°
2026-05-07 06:03 41.74035 28.62355 16702 ft 360 kts 315°
2026-05-07 06:04 41.75781 28.59937 17299 ft 362 kts 315°
2026-05-07 06:04 41.77537 28.57505 17898 ft 364 kts 315°
2026-05-07 06:04 41.79280 28.55089 18488 ft 366 kts 315°
2026-05-07 06:04 41.81053 28.52625 19011 ft 368 kts 315°
2026-05-07 06:05 41.82837 28.50149 19542 ft 370 kts 315°
2026-05-07 06:05 41.84634 28.47658 20044 ft 373 kts 315°
2026-05-07 06:05 41.86442 28.45151 20580 ft 375 kts 315°
2026-05-07 06:05 41.88258 28.42629 21092 ft 377 kts 315°
2026-05-07 06:06 41.90082 28.40093 21593 ft 379 kts 315°
2026-05-07 06:06 41.91915 28.37538 22075 ft 381 kts 315°
2026-05-07 06:06 41.93756 28.34965 22529 ft 383 kts 315°
2026-05-07 06:06 41.95609 28.32375 22991 ft 385 kts 315°
2026-05-07 06:07 41.97443 28.29807 23454 ft 388 kts 315°
2026-05-07 06:07 41.99141 28.26973 23869 ft 392 kts 306°
2026-05-07 06:07 42.00674 28.23932 24250 ft 394 kts 306°
2026-05-07 06:07 42.02214 28.20878 24636 ft 395 kts 306°
2026-05-07 06:08 42.03760 28.17809 25011 ft 397 kts 306°
2026-05-07 06:08 42.05311 28.14729 25399 ft 398 kts 306°
2026-05-07 06:08 42.06868 28.11635 25768 ft 400 kts 306°
2026-05-07 06:08 42.08431 28.08526 26128 ft 402 kts 306°
2026-05-07 06:09 42.09982 28.05442 26489 ft 404 kts 306°
2026-05-07 06:09 42.11558 28.02305 26850 ft 405 kts 306°
2026-05-07 06:09 42.13139 27.99154 27226 ft 407 kts 306°
2026-05-07 06:09 42.14727 27.95989 27599 ft 409 kts 306°
2026-05-07 06:10 42.16322 27.92811 27964 ft 410 kts 306°
2026-05-07 06:10 42.17922 27.89615 28329 ft 412 kts 306°
2026-05-07 06:10 42.19525 27.86403 28686 ft 414 kts 306°
2026-05-07 06:10 42.21195 27.83238 29036 ft 414 kts 311°
2026-05-07 06:11 42.23199 27.80468 29511 ft 412 kts 320°
2026-05-07 06:11 42.25475 27.78240 30002 ft 410 kts 329°
2026-05-07 06:11 42.27969 27.76389 30483 ft 408 kts 330°
2026-05-07 06:11 42.30465 27.74565 30894 ft 407 kts 330°
2026-05-07 06:12 42.32956 27.72743 31290 ft 407 kts 330°
2026-05-07 06:12 42.35443 27.70923 31694 ft 406 kts 330°
2026-05-07 06:12 42.37926 27.69102 32094 ft 406 kts 330°
2026-05-07 06:12 42.40405 27.67279 32500 ft 405 kts 330°
2026-05-07 06:13 42.42882 27.65458 32896 ft 405 kts 330°
2026-05-07 06:13 42.45357 27.63643 33309 ft 404 kts 330°
2026-05-07 06:13 42.47796 27.61849 33699 ft 404 kts 330°
2026-05-07 06:13 42.50256 27.60039 34120 ft 403 kts 330°
2026-05-07 06:14 42.52722 27.58223 34470 ft 403 kts 330°
2026-05-07 06:14 42.55187 27.56407 34744 ft 404 kts 330°
2026-05-07 06:14 42.57657 27.54592 35037 ft 404 kts 332°
2026-05-07 06:14 42.60238 27.53081 35323 ft 405 kts 339°
2026-05-07 06:15 42.62902 27.51836 35622 ft 405 kts 339°
2026-05-07 06:15 42.65570 27.50599 35903 ft 405 kts 339°
2026-05-07 06:15 42.68243 27.49364 36097 ft 406 kts 339°
2026-05-07 06:16 42.73613 27.46877 36139 ft 414 kts 339°
2026-05-07 06:16 42.79077 27.44332 36140 ft 416 kts 339°
2026-05-07 06:17 42.84556 27.41773 36139 ft 416 kts 339°
2026-05-07 06:17 42.90042 27.39203 36136 ft 416 kts 339°
2026-05-07 06:18 42.95482 27.36644 36138 ft 417 kts 339°
2026-05-07 06:18 43.00966 27.34063 36145 ft 417 kts 339°
2026-05-07 06:19 43.06455 27.31485 36146 ft 417 kts 339°
2026-05-07 06:19 43.11943 27.28903 36146 ft 417 kts 339°
2026-05-07 06:20 43.17386 27.26329 36146 ft 417 kts 339°
2026-05-07 06:20 43.22867 27.23727 36142 ft 417 kts 339°
2026-05-07 06:21 43.28352 27.21122 36133 ft 417 kts 339°
2026-05-07 06:21 43.33835 27.18522 36134 ft 417 kts 339°
2026-05-07 06:22 43.39277 27.15934 36140 ft 416 kts 339°
2026-05-07 06:22 43.47482 27.12010 36132 ft 416 kts 339°
2026-05-07 06:23 43.52948 27.09393 36119 ft 416 kts 339°
2026-05-07 06:23 43.58413 27.06786 36124 ft 415 kts 339°
2026-05-07 06:24 43.63870 27.04168 36118 ft 415 kts 339°
2026-05-07 06:24 43.69284 27.01561 36125 ft 415 kts 339°
2026-05-07 06:25 43.74742 26.98922 36111 ft 416 kts 339°
2026-05-07 06:25 43.80203 26.96278 36106 ft 416 kts 338°
2026-05-07 06:26 43.85665 26.93632 36109 ft 416 kts 338°
2026-05-07 06:26 43.91093 26.91008 36115 ft 416 kts 338°
2026-05-07 06:27 43.96556 26.88358 36108 ft 416 kts 338°
2026-05-07 06:27 44.02022 26.85694 36106 ft 416 kts 338°
2026-05-07 06:28 44.07500 26.83061 36098 ft 417 kts 341°
2026-05-07 06:28 44.13246 26.81668 36115 ft 420 kts 349°
2026-05-07 06:29 44.19000 26.80530 36100 ft 421 kts 349°
2026-05-07 06:29 44.24804 26.79369 36103 ft 422 kts 349°
2026-05-07 06:30 44.30615 26.78204 36107 ft 422 kts 349°
2026-05-07 06:30 44.36431 26.77034 36107 ft 422 kts 349°
2026-05-07 06:31 44.42257 26.75859 36101 ft 424 kts 349°
2026-05-07 06:31 44.48061 26.74690 36099 ft 424 kts 349°
2026-05-07 06:32 44.53903 26.73498 36100 ft 425 kts 349°
2026-05-07 06:32 44.59758 26.72308 36105 ft 426 kts 349°
2026-05-07 06:33 44.65629 26.71128 36104 ft 427 kts 349°
2026-05-07 06:33 44.71476 26.69947 36101 ft 427 kts 349°
2026-05-07 06:34 44.77366 26.68749 36101 ft 428 kts 349°
2026-05-07 06:34 44.83257 26.67541 36114 ft 428 kts 349°
2026-05-07 06:35 44.89159 26.66334 36114 ft 429 kts 349°
2026-05-07 06:35 44.95072 26.65124 36118 ft 430 kts 349°
2026-05-07 06:36 45.00948 26.63917 36111 ft 430 kts 349°
2026-05-07 06:36 45.06872 26.62703 36119 ft 430 kts 349°
2026-05-07 06:37 45.12800 26.61481 36115 ft 431 kts 349°
2026-05-07 06:37 45.18696 26.60256 36107 ft 431 kts 349°
2026-05-07 06:38 45.24634 26.59035 36117 ft 431 kts 350°
2026-05-07 06:38 45.30576 26.57806 36117 ft 432 kts 349°
2026-05-07 06:39 45.36524 26.56563 36104 ft 432 kts 349°
2026-05-07 06:39 45.42478 26.55324 36103 ft 433 kts 349°
2026-05-07 06:40 45.48393 26.54093 36106 ft 433 kts 349°
2026-05-07 06:40 45.54356 26.52848 36098 ft 433 kts 349°
2026-05-07 06:41 45.60325 26.51595 36094 ft 434 kts 349°
2026-05-07 06:41 45.66297 26.50337 36089 ft 434 kts 349°
2026-05-07 06:42 45.72234 26.49089 36091 ft 434 kts 349°
2026-05-07 06:42 45.78209 26.47824 36086 ft 434 kts 349°
2026-05-07 06:43 45.84184 26.46558 36084 ft 434 kts 349°
2026-05-07 06:43 45.90161 26.45292 36083 ft 434 kts 349°
2026-05-07 06:44 45.96140 26.44024 36081 ft 434 kts 349°
2026-05-07 06:44 46.02080 26.42758 36075 ft 435 kts 349°
2026-05-07 06:45 46.08068 26.41480 36080 ft 435 kts 349°
2026-05-07 06:45 46.14059 26.40202 36076 ft 435 kts 349°
2026-05-07 06:46 46.20047 26.38917 36079 ft 435 kts 349°
2026-05-07 06:46 46.26007 26.37634 36071 ft 436 kts 349°
2026-05-07 06:47 46.32014 26.36342 36065 ft 437 kts 349°
2026-05-07 06:47 46.38025 26.35044 36069 ft 437 kts 349°
2026-05-07 06:48 46.44022 26.33672 36074 ft 437 kts 348°
2026-05-07 06:48 46.49977 26.32192 36068 ft 437 kts 348°
2026-05-07 06:49 46.55971 26.30696 36068 ft 437 kts 348°
2026-05-07 06:49 46.61973 26.29216 36061 ft 438 kts 348°
2026-05-07 06:50 46.67986 26.27761 36061 ft 438 kts 349°
2026-05-07 06:50 46.74004 26.26298 36057 ft 439 kts 348°
2026-05-07 06:51 46.79982 26.24822 36056 ft 439 kts 348°
2026-05-07 06:51 46.86008 26.23334 36054 ft 439 kts 348°
2026-05-07 06:52 46.92037 26.21848 36064 ft 439 kts 348°
2026-05-07 06:52 46.98070 26.20360 36047 ft 440 kts 348°
2026-05-07 06:53 47.04069 26.18865 36045 ft 440 kts 348°
2026-05-07 06:53 47.10109 26.17353 36042 ft 440 kts 348°
2026-05-07 06:54 47.16156 26.15848 36043 ft 441 kts 348°
2026-05-07 06:54 47.22206 26.14339 36041 ft 441 kts 348°
2026-05-07 06:55 47.28215 26.12840 36046 ft 441 kts 348°
2026-05-07 06:55 47.34272 26.11323 36036 ft 442 kts 348°
2026-05-07 06:56 47.40336 26.09796 36031 ft 442 kts 348°
2026-05-07 06:56 47.46408 26.08252 36035 ft 443 kts 348°
2026-05-07 06:57 47.52447 26.06720 36045 ft 443 kts 348°
2026-05-07 06:57 47.58528 26.05189 36040 ft 443 kts 348°
2026-05-07 06:58 47.64609 26.03650 36032 ft 443 kts 348°
2026-05-07 06:58 47.70684 26.02098 35643 ft 443 kts 348°
2026-05-07 06:59 47.73723 26.01318 34989 ft 444 kts 348°
2026-05-07 06:59 47.76767 26.00538 34334 ft 446 kts 348°
2026-05-07 06:59 47.79829 25.99759 33624 ft 447 kts 348°
2026-05-07 06:59 47.82909 25.98977 32857 ft 449 kts 348°
2026-05-07 07:00 47.85948 25.98204 32090 ft 450 kts 348°
2026-05-07 07:00 47.89043 25.97415 31334 ft 452 kts 348°
2026-05-07 07:00 47.92095 25.96328 30623 ft 450 kts 339°
2026-05-07 07:00 47.94968 25.94578 30077 ft 443 kts 331°
2026-05-07 07:01 47.97608 25.92265 29436 ft 437 kts 323°
2026-05-07 07:01 47.99972 25.89457 28794 ft 432 kts 317°
2026-05-07 07:01 48.02212 25.86488 28169 ft 429 kts 317°
2026-05-07 07:01 48.04435 25.83540 27554 ft 426 kts 317°
2026-05-07 07:02 48.06639 25.80610 26957 ft 422 kts 317°
2026-05-07 07:02 48.08826 25.77699 26370 ft 419 kts 317°
2026-05-07 07:02 48.10964 25.74846 25799 ft 417 kts 316°
2026-05-07 07:02 48.13120 25.71958 25231 ft 414 kts 316°
2026-05-07 07:03 48.15253 25.69098 24677 ft 411 kts 317°
2026-05-07 07:03 48.16514 25.67409 24355 ft 410 kts 317°
2026-05-07 07:03 48.18427 25.64846 23882 ft 408 kts 317°
2026-05-07 07:03 48.20534 25.62022 23329 ft 405 kts 316°
2026-05-07 07:04 48.22629 25.59209 22723 ft 403 kts 316°
2026-05-07 07:04 48.24712 25.56411 22164 ft 401 kts 316°
2026-05-07 07:04 48.26753 25.53667 21655 ft 398 kts 316°
2026-05-07 07:04 48.27619 25.52501 21438 ft 397 kts 316°
2026-05-07 07:05 48.29670 25.49733 20912 ft 394 kts 316°
2026-05-07 07:05 48.31700 25.46985 20387 ft 392 kts 316°
2026-05-07 07:05 48.33717 25.44248 19877 ft 389 kts 315°
2026-05-07 07:05 48.35723 25.41531 19365 ft 387 kts 315°
2026-05-07 07:06 48.37718 25.38830 18860 ft 385 kts 315°
2026-05-07 07:06 48.39702 25.36145 18359 ft 383 kts 315°
2026-05-07 07:06 48.41672 25.33473 17836 ft 380 kts 315°
2026-05-07 07:06 48.43620 25.30828 17332 ft 375 kts 315°
2026-05-07 07:07 48.45523 25.28241 16793 ft 372 kts 315°
2026-05-07 07:07 48.47435 25.25638 16270 ft 369 kts 315°
2026-05-07 07:07 48.49337 25.23046 15754 ft 367 kts 315°
2026-05-07 07:07 48.51219 25.20479 15252 ft 364 kts 315°
2026-05-07 07:08 48.53096 25.17916 14729 ft 362 kts 315°
2026-05-07 07:08 48.54957 25.15373 14241 ft 360 kts 315°
2026-05-07 07:08 48.56801 25.12843 13755 ft 357 kts 314°
2026-05-07 07:08 48.58634 25.10328 13219 ft 355 kts 315°
2026-05-07 07:09 48.60434 25.07858 12676 ft 353 kts 315°
2026-05-07 07:09 48.62245 25.05373 12188 ft 351 kts 315°
2026-05-07 07:09 48.64040 25.02906 11719 ft 347 kts 315°
2026-05-07 07:09 48.65821 25.00456 11267 ft 344 kts 315°
2026-05-07 07:10 48.67582 24.98029 10824 ft 341 kts 315°
2026-05-07 07:10 48.69305 24.95655 10689 ft 329 kts 315°
2026-05-07 07:10 48.70968 24.93366 10556 ft 318 kts 315°
2026-05-07 07:10 48.72576 24.91150 10436 ft 308 kts 315°
2026-05-07 07:11 48.74117 24.89020 10312 ft 300 kts 314°
2026-05-07 07:11 48.75637 24.86917 10123 ft 293 kts 314°
2026-05-07 07:11 48.77137 24.84838 9865 ft 291 kts 314°
2026-05-07 07:11 48.78624 24.82774 9517 ft 289 kts 314°
2026-05-07 07:12 48.80104 24.80718 9176 ft 288 kts 314°
2026-05-07 07:12 48.81580 24.78663 8888 ft 287 kts 314°
2026-05-07 07:12 48.83045 24.76625 8591 ft 284 kts 313°
2026-05-07 07:12 48.84496 24.74609 8309 ft 282 kts 313°
2026-05-07 07:13 48.85936 24.72603 7976 ft 280 kts 313°
2026-05-07 07:13 48.87353 24.70630 7646 ft 280 kts 314°
2026-05-07 07:13 48.88690 24.68519 7323 ft 275 kts 303°
2026-05-07 07:13 48.89764 24.66135 7005 ft 273 kts 300°
2026-05-07 07:14 48.90821 24.63747 6697 ft 272 kts 300°
2026-05-07 07:14 48.91875 24.61367 6398 ft 271 kts 300°
2026-05-07 07:14 48.92926 24.58991 6073 ft 271 kts 300°
2026-05-07 07:14 48.93975 24.56619 5761 ft 270 kts 300°
2026-05-07 07:15 48.95020 24.54253 5451 ft 269 kts 300°
2026-05-07 07:15 48.96062 24.51895 5152 ft 268 kts 300°
2026-05-07 07:15 48.97090 24.49572 4839 ft 267 kts 300°
2026-05-07 07:15 48.98119 24.47249 4623 ft 262 kts 300°
2026-05-07 07:16 48.99110 24.44975 4495 ft 252 kts 296°
2026-05-07 07:16 48.99537 24.43382 4412 ft 241 kts 279°
2026-05-07 07:16 48.99626 24.42577 4372 ft 236 kts 271°